Regional Weather Roundup
Issued by NWS Upton, NY

Current Version | Previous Version | Text Only | Print | Product List | Glossary On
Versions: 1 2 3 4 5 6 7 8 9 10 11 12 13 14 15 16 17 18 19 20 21 22 23 24 25 26 27 28 29 30 31 32 33 34 35 36 37 38 39 40 41 42 43 44 45 46 47 48 49
000 ASUS41 KOKX 172305 RWROKX REGIONAL WEATHER ROUNDUP NATIONAL WEATHER SERVICE NEW YORK NY 700 PM EDT WED SEP 17 2014 NOTE: "FAIR" INDICATES FEW OR NO CLOUDS BELOW 12,000 FEET WITH NO SIGNIFICANT WEATHER AND/OR OBSTRUCTIONS TO VISIBILITY. NYZ071-072-176-178-NJZ106-104-180000- NEW YORK CITY METRO AREA CITY SKY/WX TMP DP RH WIND PRES REMARKS CENTRAL PARK CLEAR 68 42 38 CALM 30.00R LAGUARDIA APRT PTCLDY 71 43 36 W7 29.97R KENNEDY INTL PTCLDY 66 49 54 S10 29.98R NEWARK/LIBERTY PTCLDY 70 43 37 W7 29.97R BRNX BOT. GARD N/A 64 43 45 NE2 29.97F TETERBORO CLEAR 70 41 34 W5 29.96R $$ NYZ177-179-078>081-180000- LONG ISLAND NEW YORK CITY SKY/WX TMP DP RH WIND PRES REMARKS FARMINGDALE CLEAR 65 48 54 S7 29.98S ISLIP PTCLDY 64 48 56 CALM 29.97S SHIRLEY CLEAR 64 48 56 SW5 29.98S WESTHAMPTON CLEAR 63 47 55 SW5 29.99S MONTAUK POINT N/A 64 51 62 CALM 29.99R $$ NYZ052-065-067-180000- HUDSON VALLEY CITY SKY/WX TMP DP RH WIND PRES REMARKS WHITE PLAINS PTCLDY 62 46 55 CALM 29.97S NEWBURGH PTCLDY 64 48 55 W6 29.98 MONTGOMERY PTCLDY 58 50 75 CALM 29.97S POUGHKEEPSIE PTCLDY 62 48 60 CALM 29.96S ALBANY PTCLDY 62 46 55 W5 29.97S $$ NJZ001-105-106-008-010-013-015-019>022-104-180000- NEW JERSEY CITY SKY/WX TMP DP RH WIND PRES REMARKS NEWARK/LIBERTY PTCLDY 70 43 37 W7 29.97R TETERBORO CLEAR 70 41 34 W5 29.96R CALDWELL CLEAR 67 43 41 CALM 29.98R MORRISTOWN PTCLDY 66 46 48 CALM 29.98S SOMERVILLE CLEAR 62 49 62 CALM 29.96S LINDEN FAIR 73 46 37 NW5 29.99S SUSSEX PTCLDY 62 52 69 CALM 29.98R ANDOVER N/A 58 49 72 CALM 29.98S TRENTON PTCLDY 69 45 41 CALM 29.97R MILLVILLE CLEAR 67 50 54 N5 29.98R ATLANTIC CITY CLEAR 66 53 63 S3 29.98S WRIGHTSTOWN MOCLDY 64 53 68 SE8 29.96R TOMS RIVER CLEAR 63 54 72 CALM 29.99S BELMAR CLEAR 63 48 59 S3 29.98S $$ PAZ047>061-062-071-180000- EASTERN PENNSYLVANIA CITY SKY/WX TMP DP RH WIND PRES REMARKS PHILADELPHIA PTCLDY 72 48 42 SW7 29.98R ALLENTOWN CLEAR 65 45 48 W5 29.98R SCRANTON PTCLDY 64 41 42 SW7 29.98S $$ CTZ002-004>006-009-010-012-RIZ004-006-007-MAZ004-011-015-180000- SOUTHERN NEW ENGLAND IN CT CITY SKY/WX TMP DP RH WIND PRES REMARKS BRADLEY INTL PTCLDY 65 46 50 NW3 29.96S HARTFORD CLEAR 66 42 41 SW7 29.96S DANBURY CLEAR 59 49 69 CALM 29.99S WTRBRY/OXFORD PTCLDY 63 45 51 CALM 29.99S BRIDGEPORT PTCLDY 68 45 43 W3 29.97S MERIDEN CLEAR 61 46 57 CALM 29.97S NEW HAVEN CLEAR 68 47 46 S3 29.97S CHESTER FAIR 61 52 72 SW3 29.98S GROTON CLEAR 63 49 60 W5 29.96S WILLIMANTIC MOCLDY 63 48 58 N5 29.97R IN RI CITY SKY/WX TMP DP RH WIND PRES REMARKS PROVIDENCE PTCLDY 66 43 43 W6 29.96R BLOCK ISLAND CLEAR 63 48 59 SW8 29.98S WESTERLY CLEAR 64 48 56 W5 29.98R IN MA CITY SKY/WX TMP DP RH WIND PRES REMARKS BOSTON PTCLDY 63 51 65 SE8 29.96R WORCESTER CLEAR 58 44 60 W6 29.98R WESTFIELD CLEAR 59 49 69 CALM 29.97R PROVINCETOWN CLEAR 63 52 67 S7 29.96R NANTUCKET PTCLDY 60 55 83 SW5 29.98R $$ ANZ330-335-338-340-345-350-353-355-180000- COASTAL MARINE OBSERVATIONS STATION/POSITION TIME SKY/WX TEMP WIND PRES VSBY WAVE AIR SEA DIR/SP/G HT/PER (UTC) (F) (DEG/KT/KT) (MB) (MI) (FT/S) NY HARB ENTRANCE NOT AVBL 4S FIRE IS NOT AVBL 23SW MTP 2300 N/A 4/13 HUDSON CANYON 2300 66 74 340/ 6/ 8 1015.1 4/14 EXECUTION ROCKS 2300 75 71 50/ 2/ 6 N/A WESTERN LI SOUND 2300 70 10/ 2/ 4 N/A 0 CENTRAL LI SOUND 2200 68 71 240/ 8/ 10 N/A 1 EASTERN LI SOUND 2200 67 68 260/ 10/ 12 N/A ROBBINS REEF 2300 69 210/ 7/ 12 1013.7 $$ >>>>>>>>>>>>>>>>>>>>>>>>>>>> KEY <<<<<<<<<<<<<<<<<<<<<<<<<<< > < > SKY/WX - SKY CONDITION/PRESENT WEATHER < > TMP - TEMPERATURE IN FAHRENHEIT < > DP - DEWPOINT IN FAHRENHEIT < > RH - RELATIVE HUMIDITY IN PERCENT < > WIND - DIRECTION AND SPEED IN MPH < > PRES - MEAN SEA LEVEL PRESSURE IN INCHES OF HG < > WCI - WIND CHILL INDEX < > VSB - VISIBILITY IN MILES < > HX - HEAT INDEX < > TC - TEMPERATURE IN CELSIUS < > VRB - VARIABLE WIND DIRECTION < > < >>>>>>>>>>>>>>>>>>>>>>>>>>>> KEY <<<<<<<<<<<<<<<<<<<<<<<<<<<

USA.gov is the U.S. government's official web portal to all federal, state and local government web resources and services.